WW9M Weather Reports


Display with metric or nautical units.
time (UTC)temp
F
wind
direction
speed
MPH
gust
MPH
rain 1hr
in
rain 24hr
in
rain mn
in
humidity
%
barometer
mb
20260503213500 62 285 2.0 8.0 0.00 0.00 0.00 45 1013.0
20260503213002 62 96 2.0 12.0 0.00 0.00 0.00 44 1013.0
20260503212504 63 115 1.0 12.0 0.00 0.00 0.00 45 1013.1
20260503212001 63 50 1.0 6.0 0.00 0.00 0.00 45 1013.3
20260503211502 63 18 1.0 6.0 0.00 0.00 0.00 44 1013.5
20260503210502 63 243 1.0 5.0 0.00 0.00 0.00 45 1013.8
20260503210006 63 41 1.0 5.0 0.00 0.00 0.00 44 1014.0
20260503205504 64 231 2.0 6.0 0.00 0.00 0.00 44 1014.1
20260503205004 64 64 2.0 6.0 0.00 0.00 0.00 41 1014.1
20260503204505 65 93 2.0 6.0 0.00 0.00 0.00 41 1014.2
20260503204000 65 84 2.0 8.0 0.00 0.00 0.00 41 1014.3
20260503203500 66 246 2.0 8.0 0.00 0.00 0.00 41 1014.3
20260503203001 66 43 2.0 9.0 0.00 0.00 0.00 40 1014.1
20260503202500 67 121 2.0 9.0 0.00 0.00 0.00 40 1014.2
20260503202000 67 28 2.0 7.0 0.00 0.00 0.00 40 1014.3
20260503201500 66 345 2.0 7.0 0.00 0.00 0.00 42 1014.3
20260503201000 66 221 2.0 7.0 0.00 0.00 0.00 40 1014.3
20260503200502 65 325 2.0 10.0 0.00 0.00 0.00 43 1014.6
20260503200005 65 254 3.0 10.0 0.00 0.00 0.00 42 1014.5
20260503195500 66 66 2.0 7.0 0.00 0.00 0.00 40 1014.6
20260503195002 67 23 2.0 7.0 0.00 0.00 0.00 42 1014.8
20260503194504 66 134 2.0 7.0 0.00 0.00 0.00 44 1014.7
20260503194000 66 10 2.0 6.0 0.00 0.00 0.00 44 1014.8
20260503193502 65 262 2.0 8.0 0.00 0.00 0.00 42 1014.8
20260503193005 66 71 3.0 8.0 0.00 0.00 0.00 41 1014.9
20260503192505 66 41 2.0 7.0 0.00 0.00 0.00 41 1014.9
20260503192004 66 30 2.0 7.0 0.00 0.00 0.00 40 1015.0
20260503191504 66 191 2.0 7.0 0.00 0.00 0.00 40 1015.3
20260503191000 66 94 2.0 8.0 0.00 0.00 0.00 39 1015.4
20260503190500 66 63 2.0 8.0 0.00 0.00 0.00 40 1015.2
20260503190000 65 65 2.0 9.0 0.00 0.00 0.00 42 1015.4
20260503185500 65 86 2.0 9.0 0.00 0.00 0.00 40 1015.6
20260503185003 65 30 2.0 8.0 0.00 0.00 0.00 40 1015.6
20260503184005 65 211 2.0 8.0 0.00 0.00 0.00 40 1015.9
20260503183504 65 34 2.0 7.0 0.00 0.00 0.00 39 1016.1
20260503183000 65 45 2.0 6.0 0.00 0.00 0.00 38 1016.3
20260503182502 65 60 2.0 6.0 0.00 0.00 0.00 40 1016.5
20260503181959 64 129 2.0 7.0 0.00 0.00 0.00 40 1016.4
20260503181504 64 268 2.0 6.0 0.00 0.00 0.00 38 1016.5
20260503180502 64 84 2.0 8.0 0.00 0.00 0.00 41 1016.7
20260503180001 63 44 2.0 8.0 0.00 0.00 0.00 41 1016.8
20260503175504 63 60 2.0 5.0 0.00 0.00 0.00 37 1017.0
20260503175002 63 185 2.0 8.0 0.00 0.00 0.00 40 1017.0
20260503174504 63 37 2.0 7.0 0.00 0.00 0.00 39 1017.0
20260503173505 63 58 2.0 7.0 0.00 0.00 0.00 39 1017.2
20260503173004 63 359 2.0 6.0 0.00 0.00 0.00 42 1017.2
20260503172503 63 41 2.0 6.0 0.00 0.00 0.00 37 1017.3
20260503171502 63 64 2.0 6.0 0.00 0.00 0.00 39 1017.4
20260503171000 63 139 2.0 7.0 0.00 0.00 0.00 37 1017.6
20260503170500 63 148 2.0 7.0 0.00 0.00 0.00 42 1017.7
20260503151003 59 55 1.0 4.0 0.00 0.00 0.00 43 1019.1
20260503150500 58 205 1.0 4.0 0.00 0.00 0.00 44 1019.1
20260503131004 0 0.0 0.0 0.00 0.00 0.00 1019.5
20260503130504 0 0.0 0.0 0.00 0.00 0.00 1019.5
20260503110500 0 243 0.0 0.0 0.00 0.00 0.00 86 1018.8
20260503090502 38 252 0.0 0.0 0.00 0.00 0.00 87 1018.4
20260503081504 38 243 0.0 1.0 0.00 0.00 0.00 86 1018.4
20260503080959 38 242 0.0 1.0 0.00 0.00 0.00 85 1018.3
20260503080500 39 243 0.0 1.0 0.00 0.00 0.00 85 1018.4
20260503072004 39 256 0.0 1.0 0.00 0.00 0.00 83 1018.4
20260503071504 40 266 0.0 1.0 0.00 0.00 0.00 84 1018.4
20260503071004 40 266 0.0 1.0 0.00 0.00 0.00 84 1018.4
20260503055004 40 246 0.0 1.0 0.00 0.00 0.00 85 1018.9
20260503054503 40 246 0.0 1.0 0.00 0.00 0.00 85 1018.9
20260503054000 40 246 0.0 0.0 0.00 0.00 0.00 85 1018.9
20260503053503 40 246 0.0 0.0 0.00 0.00 0.00 86 1018.9
20260503052000 40 246 0.0 0.0 0.00 0.00 0.00 86 1019.0
20260503051504 39 246 0.0 0.0 0.00 0.00 0.00 85 1019.0
20260503051000 39 246 0.0 0.0 0.00 0.00 0.00 84 1019.1
20260503050504 39 246 0.0 0.0 0.00 0.00 0.00 84 1019.1
20260503045500 39 246 0.0 0.0 0.00 0.00 0.00 83 1019.1
20260503045000 39 246 0.0 0.0 0.00 0.00 0.00 82 1019.1
20260503044500 39 246 0.0 0.0 0.00 0.00 0.00 81 1019.0
20260503044002 40 246 0.0 0.0 0.00 0.00 0.00 80 1019.0
20260503043502 40 246 0.0 0.0 0.00 0.00 0.00 79 1018.9
20260503043000 40 246 0.0 0.0 0.00 0.00 0.00 79 1018.9
20260503042501 40 246 0.0 0.0 0.00 0.00 0.00 79 1018.9
20260503042000 40 246 0.0 0.0 0.00 0.00 0.00 77 1018.9
20260503041500 40 246 0.0 0.0 0.00 0.00 0.00 77 1018.8
20260503041000 40 246 0.0 0.0 0.00 0.00 0.00 77 1018.8
20260503035502 41 246 0.0 0.0 0.00 0.00 0.00 78 1018.9
20260503034504 41 246 0.0 0.0 0.00 0.00 0.00 75 1018.9
20260503034000 41 246 0.0 0.0 0.00 0.00 0.00 74 1018.9
20260503033501 41 246 0.0 0.0 0.00 0.00 0.00 72 1019.0
20260503033005 41 246 0.0 0.0 0.00 0.00 0.00 70 1018.9
20260503032502 42 246 0.0 0.0 0.00 0.00 0.00 69 1019.0
20260503032002 42 246 0.0 0.0 0.00 0.00 0.00 69 1019.0
20260503031500 42 246 0.0 0.0 0.00 0.00 0.00 69 1019.0
20260503031000 42 246 0.0 0.0 0.00 0.00 0.00 69 1019.0
20260503030005 42 246 0.0 0.0 0.00 0.00 0.00 68 1019.0
20260503025504 42 246 0.0 0.0 0.00 0.00 0.00 69 1019.0
20260503025004 42 246 0.0 0.0 0.00 0.00 0.00 68 1019.0
20260503024505 42 246 0.0 0.0 0.00 0.00 0.00 71 1018.9
20260503024004 43 246 0.0 0.0 0.00 0.00 0.00 69 1018.9
20260503023002 43 246 0.0 0.0 0.00 0.00 0.00 67 1018.8
20260503022504 43 246 0.0 0.0 0.00 0.00 0.00 66 1018.7
20260503022000 43 246 0.0 0.0 0.00 0.00 0.00 67 1018.8
20260503021504 43 246 0.0 0.0 0.00 0.00 0.00 70 1018.6
20260503021004 44 246 0.0 0.0 0.00 0.00 0.00 67 1018.7
20260503020504 44 246 0.0 0.0 0.00 0.00 0.00 65 1018.6
20260503020000 44 246 0.0 0.0 0.00 0.00 0.00 64 1018.5
20260503015003 44 246 0.0 0.0 0.00 0.00 0.00 64 1018.4
20260503013503 45 246 0.0 1.0 0.00 0.00 0.00 62 1018.3
20260503013002 45 246 0.0 0.0 0.00 0.00 0.00 61 1018.2
20260503012504 46 246 0.0 1.0 0.00 0.00 0.00 64 1018.1
20260503012004 46 246 0.0 1.0 0.00 0.00 0.00 62 1018.1
20260503011504 46 246 0.0 1.0 0.00 0.00 0.00 59 1018.1
20260503011004 46 246 0.0 0.0 0.00 0.00 0.00 59 1017.9
20260503010504 47 246 0.0 0.0 0.00 0.00 0.00 57 1018.0
20260503010001 47 246 0.0 0.0 0.00 0.00 0.00 56 1017.9
20260503005503 47 246 0.0 0.0 0.00 0.00 0.00 57 1017.9
20260503004500 48 246 0.0 1.0 0.00 0.00 0.00 57 1017.8
20260503004004 48 246 0.0 1.0 0.00 0.00 0.00 58 1017.9
20260503003503 49 246 0.0 1.0 0.00 0.00 0.00 61 1017.8
20260503003000 49 246 0.0 1.0 0.00 0.00 0.00 62 1017.8
20260503002500 49 246 0.0 1.0 0.00 0.00 0.00 62 1017.7
20260503001503 50 321 0.0 1.0 0.00 0.00 0.00 59 1017.6
20260503001000 50 321 1.0 1.0 0.00 0.00 0.00 58 1017.6
20260503000503 51 321 0.0 1.0 0.00 0.00 0.00 56 1017.5
20260503000002 51 349 0.0 1.0 0.00 0.00 0.00 57 1017.4
20260502235503 51 349 1.0 1.0 0.00 0.00 0.00 55 1017.4
20260502234504 52 287 1.0 3.0 0.00 0.00 0.00 51 1017.4
20260502234004 52 4 1.0 3.0 0.00 0.00 0.00 49 1017.4
20260502233504 52 59 1.0 2.0 0.00 0.00 0.00 49 1017.4
20260502233005 52 308 1.0 2.0 0.00 0.00 0.00 52 1017.4
20260502232504 52 48 1.0 2.0 0.00 0.00 0.00 51 1017.4
20260502232000 52 12 1.0 2.0 0.00 0.00 0.00 50 1017.4
20260502231504 53 20 1.0 2.0 0.00 0.00 0.00 51 1017.4
20260502231000 53 328 1.0 4.0 0.00 0.00 0.00 52 1017.4
20260502230504 53 38 1.0 4.0 0.00 0.00 0.00 47 1017.5
20260502230000 53 353 1.0 3.0 0.00 0.00 0.00 51 1017.4
20260502225003 53 314 0.0 2.0 0.00 0.00 0.00 52 1017.3
20260502223504 54 3 1.0 2.0 0.00 0.00 0.00 48 1017.2
20260502223004 54 65 1.0 2.0 0.00 0.00 0.00 46 1017.2
20260502222504 54 316 2.0 3.0 0.00 0.00 0.00 49 1017.3
20260502222004 55 32 1.0 4.0 0.00 0.00 0.00 48 1017.3
20260502221502 55 71 0.0 4.0 0.00 0.00 0.00 48 1017.2
20260502221003 54 68 1.0 3.0 0.00 0.00 0.00 48 1017.1
20260502220504 54 36 1.0 3.0 0.00 0.00 0.00 50 1017.2
20260502215505 54 240 1.0 3.0 0.00 0.00 0.00 47 1017.1
20260502215000 54 307 1.0 2.0 0.00 0.00 0.00 47 1017.1